Hyderabad, India

5:36 PM IST on September 25, 2017 (GMT +0530)
Hyderabad

Weather History for VOHY - September, 2012

Change the Weather History Date:

Sunday, September 9, 2012

  Actual Average Record
Temperature  
Mean Temperature 80 °F -  
Max Temperature 86 °F 84 °F 95 °F (2006)
Min Temperature 74 °F 71 °F 69 °F (1999)
Cooling Degree Days 15    
Growing Degree Days 30 (Base 50)    
Moisture  
Dew Point 70 °F    
Average Humidity 67    
Maximum Humidity 84    
Minimum Humidity 58    
Precipitation  
Precipitation 0.00 in 0.18 in - ()
Sea Level Pressure  
Sea Level Pressure 29.76 in    
Wind  
Wind Speed 8 mph ()    
Max Wind Speed 14 mph    
Max Gust Speed -    
Visibility 3.8 miles    
Events      
Averages and records for this station are not official NWS values.
T = Trace of Precipitation, MM = Missing Value Source: Averaged Metar Reports

Daily Weather History Graph

Daily Weather History Graph

Search for Another Location

Airport or City:

Trip Planner

Search our weather history database for the weather conditions in past years. The results will help you decide how hot, cold, wet, or windy it might be!

Date:

Astronomy

Sep. 09, 2012 Rise Set
Actual Time 6:03 AM IST 6:23 PM IST
Civil Twilight 5:41 AM IST 6:44 PM IST
Nautical Twilight 5:16 AM IST 7:10 PM IST
Astronomical Twilight 4:50 AM IST 7:35 PM IST
Moon No Moon Rise 1:08 PM IST (9/9)
Length of Visible Light 13h 03m
Length of Day
12h 19m
Last Quarter, 43% of the Moon is Illuminated
Sep 9
Last Quarter
Sep 16
New
Sep 23
First Quarter
Sep 30
Full
Oct 8
Last Quarter

Hourly Weather History & Observations

Time (IST) Temp. Heat Index Dew Point Humidity Pressure Visibility Wind Dir Wind Speed Gust Speed Precip Events Conditions
2:30 AM 79 °F - 74 °F 79% 29.71 in 2 mi West 9.2 mph - -   Haze
5:30 AM 75 °F - 71 °F 84% 29.69 in 2 mi WNW 3.5 mph - -   Haze
6:10 AM 73.4 °F - 66.2 °F 78% 29.83 in 3.7 mi West 11.5 mph - N/A   Scattered Clouds
8:10 AM 77.0 °F - 68.0 °F 74% 29.86 in 3.7 mi West 11.5 mph - N/A   Scattered Clouds
8:30 AM 77 °F - 71 °F 76% 29.74 in 6 mi WNW 11.5 mph - -   Partly Cloudy
9:10 AM 80.6 °F 83.2 °F 68.0 °F 65% 29.86 in 3.7 mi West 12.7 mph - N/A   Scattered Clouds
10:10 AM 82.4 °F 85.4 °F 68.0 °F 62% 29.86 in 3.7 mi WNW 13.8 mph - N/A   Scattered Clouds
11:10 AM 82.4 °F 85.4 °F 68.0 °F 62% 29.86 in 3.7 mi West 11.5 mph - N/A   Mostly Cloudy
11:30 AM 83 °F - 71 °F 58% 29.72 in 6 mi NW 11.5 mph - -   Mostly Cloudy
12:10 PM 84.2 °F 88.4 °F 69.8 °F 62% 29.86 in 3.7 mi WNW 8.1 mph - N/A   Mostly Cloudy
1:10 PM 84.2 °F 87.3 °F 68.0 °F 58% 29.83 in 3.7 mi WNW 12.7 mph - N/A   Mostly Cloudy
2:30 PM 85 °F - 73 °F 60% 29.64 in 6 mi NW 6.9 mph - -   Mostly Cloudy
3:10 PM 86.0 °F 90.4 °F 69.8 °F 58% 29.74 in 3.7 mi WNW 11.5 mph - N/A   Mostly Cloudy
4:10 PM 84.2 °F 88.4 °F 69.8 °F 62% 29.74 in 3.7 mi WNW 11.5 mph - N/A   Mostly Cloudy
5:10 PM 84.2 °F 87.3 °F 68.0 °F 58% 29.74 in 3.7 mi WNW 9.2 mph - N/A   Mostly Cloudy
5:30 PM 83 °F - 72 °F 62% 29.62 in 6 mi West 4.6 mph - -   Partly Cloudy
7:10 PM 82.4 °F 86.3 °F 69.8 °F 66% 29.74 in 3.7 mi WSW 6.9 mph - N/A   Mostly Cloudy
8:10 PM 80.6 °F 83.2 °F 68.0 °F 65% 29.77 in 3.7 mi West 5.8 mph - N/A   Mostly Cloudy
8:30 PM 81 °F - 73 °F 70% 29.68 in 2 mi NW 3.5 mph - -   Mostly Cloudy
9:10 PM 80.6 °F 83.9 °F 69.8 °F 70% 29.80 in 3.7 mi West 5.8 mph - N/A   Mostly Cloudy
11:30 PM 80 °F - 74 °F 79% 29.70 in 2 mi WNW 3.5 mph - -   Haze